Weather History for KXLL - October, 2011

Change the Weather History Date:

Wednesday, October 12, 2011

  Actual Average (KABE) Record (KABE)
Temperature  
Mean Temperature 56 °F 54 °F  
Max Temperature 60 °F 65 °F 86 °F (1928)
Min Temperature 53 °F 42 °F 25 °F (1964)
Degree Days  
Heating Degree Days 8 12  
Month to date heating degree days 118  
Since 1 July heating degree days 233  
Cooling Degree Days 0 0  
Month to date cooling degree days 3  
Year to date cooling degree days 753  
Growing Degree Days 6 (Base 50)    
Moisture  
Dew Point 51 °F    
Average Humidity 78    
Maximum Humidity 94    
Minimum Humidity 68    
Precipitation  
Precipitation 0.06 in 0.13 in 2.60 in (1993)
Month to date precipitation 1.68  
Year to date precipitation 36.07  
Snow  
Snow 0.00 in 0.00 in 0.00 in ()
Month to date snowfall 0.0  
Since 1 July snowfall 0.0  
Since 1 September snowfall 0.0  
Snow Depth -    
Sea Level Pressure  
Sea Level Pressure 30.09 in    
Wind  
Wind Speed 6 mph (NE)    
Max Wind Speed 17 mph    
Max Gust Speed 20 mph    
Visibility 10 miles    
Events Rain    
T = Trace of Precipitation, MM = Missing Value Source: NWS Daily Summary

Daily Weather History Graph

Daily Weather History Graph

Search for Another Location

Airport or City:

Trip Planner

Search our weather history database for the weather conditions in past years. The results will help you decide how hot, cold, wet, or windy it might be!

Date:

Astronomy

Oct. 12, 2011 Rise Set
Actual Time 7:09 AM EDT 6:26 PM EDT
Civil Twilight 6:42 AM EDT 6:54 PM EDT
Nautical Twilight 6:10 AM EDT 7:25 PM EDT
Astronomical Twilight 5:38 AM EDT 7:57 PM EDT
Moon 6:27 PM EDT (10/12) 7:42 AM EDT (10/12)
Length of Visible Light 12h 12m
Length of Day
11h 17m
Full, 100% of the Moon is Illuminated
Oct 12
Full
Oct 19
Last Quarter
Oct 26
New
Nov 2
First Quarter
Nov 10
Full

Hourly Weather History & Observations

Time (EDT) Temp. Dew Point Humidity Pressure Visibility Wind Dir Wind Speed Gust Speed Precip Events Conditions
12:15 AM 60.8 °F 50.0 °F 68% 30.15 in 10.0 mi NE 5.8 mph - N/A   Overcast
12:35 AM 60.8 °F 50.0 °F 68% 30.15 in 10.0 mi NE 5.8 mph - N/A   Overcast
1:15 AM 60.8 °F 50.0 °F 68% 30.16 in 10.0 mi NE 4.6 mph - N/A   Overcast
1:35 AM 60.8 °F 50.0 °F 68% 30.16 in 10.0 mi NE 3.5 mph - N/A   Overcast
1:55 AM 60.8 °F 50.0 °F 68% 30.16 in 10.0 mi Calm Calm - N/A   Overcast
2:15 AM 59.0 °F 50.0 °F 72% 30.16 in 10.0 mi Calm Calm - N/A   Overcast
2:35 AM 60.8 °F 50.0 °F 68% 30.16 in 10.0 mi NNE 3.5 mph - N/A   Overcast
2:55 AM 59.0 °F 50.0 °F 72% 30.16 in 10.0 mi NNE 3.5 mph - N/A   Overcast
3:35 AM 59.0 °F 50.0 °F 72% 30.15 in 10.0 mi NNE 3.5 mph - N/A   Overcast
3:55 AM 59.0 °F 50.0 °F 72% 30.15 in 10.0 mi NNE 3.5 mph - N/A   Overcast
4:15 AM 59.0 °F 50.0 °F 72% 30.15 in 10.0 mi NNE 5.8 mph - N/A   Overcast
4:35 AM 59.0 °F 50.0 °F 72% 30.15 in 10.0 mi NNE 3.5 mph - N/A   Overcast
4:55 AM 59.0 °F 50.0 °F 72% 30.15 in 10.0 mi NNE 4.6 mph - N/A   Overcast
5:15 AM 59.0 °F 50.0 °F 72% 30.15 in 10.0 mi NE 4.6 mph - N/A   Overcast
5:35 AM 59.0 °F 50.0 °F 72% 30.15 in 10.0 mi NE 5.8 mph - N/A   Overcast
5:55 AM 59.0 °F 50.0 °F 72% 30.15 in 10.0 mi NE 3.5 mph - N/A Rain Light Rain
6:15 AM 59.0 °F 50.0 °F 72% 30.15 in 10.0 mi NNE 5.8 mph - N/A Rain Light Rain
6:35 AM 57.2 °F 50.0 °F 77% 30.16 in 10.0 mi NNE 3.5 mph - N/A Rain Light Rain
6:55 AM 55.4 °F 51.8 °F 88% 30.16 in 10.0 mi NE 4.6 mph - N/A Rain Light Rain
7:15 AM 55.4 °F 51.8 °F 88% 30.16 in 10.0 mi Calm Calm - N/A Rain Light Rain
7:35 AM 55.4 °F 51.8 °F 88% 30.16 in 10.0 mi NNE 4.6 mph - N/A Rain Light Rain
7:55 AM 55.4 °F 51.8 °F 88% 30.16 in 10.0 mi NE 5.8 mph - N/A Rain Light Rain
8:15 AM 55.4 °F 51.8 °F 88% 30.16 in 10.0 mi NNE 3.5 mph - N/A Rain Light Rain
8:35 AM 55.4 °F 51.8 °F 88% 30.16 in 10.0 mi Calm Calm - 0.01 in Rain Rain
8:55 AM 55.4 °F 51.8 °F 88% 30.15 in 10.0 mi NE 5.8 mph - 0.01 in   Drizzle
9:15 AM 55.4 °F 51.8 °F 88% 30.15 in 10.0 mi NE 5.8 mph - N/A   Drizzle
9:35 AM 55.4 °F 53.6 °F 94% 30.14 in 10.0 mi NE 5.8 mph - N/A Rain Light Rain
10:15 AM 57.2 °F 53.6 °F 88% 30.14 in 10.0 mi ENE 5.8 mph - N/A Rain Light Rain
10:35 AM 57.2 °F 53.6 °F 88% 30.13 in 10.0 mi ENE 4.6 mph - 0.01 in Rain Rain
11:15 AM 57.2 °F 51.8 °F 82% 30.11 in 10.0 mi ENE 9.2 mph 16.1 mph N/A   Light Drizzle
11:35 AM 57.2 °F 51.8 °F 82% 30.11 in 10.0 mi ENE 10.4 mph - N/A   Overcast
11:55 AM 57.2 °F 51.8 °F 82% 30.11 in 10.0 mi ENE 10.4 mph - N/A   Overcast
12:15 PM 57.2 °F 50.0 °F 77% 30.09 in 10.0 mi ENE 10.4 mph - N/A Rain Light Rain
12:35 PM 55.4 °F 50.0 °F 82% 30.09 in 10.0 mi ENE 8.1 mph - 0.01 in Rain Rain
12:55 PM 57.2 °F 50.0 °F 77% 30.08 in 10.0 mi NE 10.4 mph - 0.01 in   Overcast
1:15 PM 57.2 °F 51.8 °F 82% 30.06 in 10.0 mi ENE 11.5 mph - N/A   Overcast
1:35 PM 59.0 °F 51.8 °F 77% 30.05 in 10.0 mi ENE 9.2 mph - N/A   Overcast
1:55 PM 59.0 °F 51.8 °F 77% 30.04 in 10.0 mi ENE 11.5 mph 19.6 mph N/A   Overcast
2:15 PM 59.0 °F 51.8 °F 77% 30.03 in 10.0 mi ENE 13.8 mph 17.3 mph N/A   Overcast
2:35 PM 59.0 °F 51.8 °F 77% 30.04 in 10.0 mi ENE 12.7 mph 17.3 mph N/A   Overcast
3:15 PM 59.0 °F 51.8 °F 77% 30.01 in 10.0 mi ENE 15.0 mph 18.4 mph N/A   Overcast
3:35 PM 59.0 °F 50.0 °F 72% 30.00 in 10.0 mi ENE 17.3 mph - N/A   Overcast
3:55 PM 59.0 °F 50.0 °F 72% 30.00 in 10.0 mi ENE 15.0 mph - N/A   Overcast
4:15 PM 59.0 °F 50.0 °F 72% 30.00 in 10.0 mi ENE 15.0 mph 18.4 mph N/A   Overcast
4:35 PM 59.0 °F 50.0 °F 72% 30.01 in 10.0 mi East 6.9 mph - N/A   Overcast
5:35 PM 57.2 °F 48.2 °F 72% 30.00 in 10.0 mi ENE 9.2 mph - N/A   Overcast
5:55 PM 57.2 °F 50.0 °F 77% 30.00 in 10.0 mi ENE 8.1 mph - N/A   Light Drizzle
6:15 PM 55.4 °F 50.0 °F 82% 29.99 in 10.0 mi ENE 11.5 mph - N/A Rain Light Rain
6:35 PM 55.4 °F 50.0 °F 82% 29.99 in 10.0 mi ENE 10.4 mph - N/A Rain Light Rain
6:55 PM 55.4 °F 50.0 °F 82% 29.98 in 10.0 mi ENE 10.4 mph 18.4 mph N/A Rain Light Rain
7:15 PM 55.4 °F 50.0 °F 82% 29.98 in 10.0 mi NE 9.2 mph - N/A   Overcast
7:35 PM 55.4 °F 50.0 °F 82% 29.98 in 10.0 mi NE 10.4 mph - N/A   Overcast
7:55 PM 53.6 °F 51.8 °F 94% 29.98 in 10.0 mi ENE 8.1 mph - N/A   Overcast
8:15 PM 53.6 °F 51.8 °F 94% 29.96 in 5.0 mi NE 11.5 mph - 0.03 in Rain Heavy Rain
8:35 PM 53.6 °F 51.8 °F 94% 29.97 in 4.0 mi NE 8.1 mph - 0.14 in Rain Heavy Rain
8:55 PM 53.6 °F 51.8 °F 94% 29.97 in 7.0 mi NNE 9.2 mph - 0.16 in Rain Rain
9:15 PM 53.6 °F 51.8 °F 94% 29.96 in 7.0 mi NE 6.9 mph - 0.01 in Rain Light Rain
9:35 PM 53.6 °F 51.8 °F 94% 29.97 in 7.0 mi NE 6.9 mph - 0.05 in Rain Light Rain
9:55 PM 53.6 °F 51.8 °F 94% 29.96 in 5.0 mi NE 8.1 mph - 0.10 in Rain Light Rain
10:15 PM 53.6 °F 51.8 °F 94% 29.96 in 7.0 mi ENE 6.9 mph - N/A   Drizzle
10:35 PM 53.6 °F 51.8 °F 94% 29.95 in 7.0 mi NNE 5.8 mph - 0.01 in   Drizzle
10:55 PM 53.6 °F 51.8 °F 94% 29.95 in 5.0 mi NE 8.1 mph - 0.01 in   Light Drizzle
11:15 PM 53.6 °F 51.8 °F 94% 29.94 in 4.0 mi NE 6.9 mph - N/A   Light Drizzle
11:35 PM 53.6 °F 51.8 °F 94% 29.93 in 5.0 mi NE 6.9 mph - N/A   Light Drizzle
11:55 PM 53.6 °F 51.8 °F 94% 29.92 in 4.0 mi NE 8.1 mph - N/A   Overcast